Netzbetreibername:;SW Malchow;;
Netz- oder Umspannebene:;Umspannung MS/NS;;
Lastgangtyp:;Summe aller Einspeisungen;;
gesetzliche Grundlage:;� 17 Abs. 2 Nr. 6 StromNZV;;
Einheit:;kW;;
Betrachtungszeitraum:;01.01.2018;31.12.2018;
;;;
Datum;von;bis;Wert
01.01.2018;00:00;00:15;195
01.01.2018;00:15;00:30;195
01.01.2018;00:30;00:45;195
01.01.2018;00:45;01:00;195
01.01.2018;01:00;01:15;195
01.01.2018;01:15;01:30;195
01.01.2018;01:30;01:45;195
01.01.2018;01:45;02:00;195
01.01.2018;02:00;02:15;195
01.01.2018;02:15;02:30;195
01.01.2018;02:30;02:45;195
01.01.2018;02:45;03:00;195
01.01.2018;03:00;03:15;195
01.01.2018;03:15;03:30;195
01.01.2018;03:30;03:45;195
01.01.2018;03:45;04:00;195
01.01.2018;04:00;04:15;195
01.01.2018;04:15;04:30;195
01.01.2018;04:30;04:45;195
01.01.2018;04:45;05:00;195
01.01.2018;05:00;05:15;195
01.01.2018;05:15;05:30;195
01.01.2018;05:30;05:45;195
01.01.2018;05:45;06:00;195
01.01.2018;06:00;06:15;195
01.01.2018;06:15;06:30;195
01.01.2018;06:30;06:45;195
01.01.2018;06:45;07:00;195
01.01.2018;07:00;07:15;195
01.01.2018;07:15;07:30;195
01.01.2018;07:30;07:45;195
01.01.2018;07:45;08:00;195
01.01.2018;08:00;08:15;195
01.01.2018;08:15;08:30;195
01.01.2018;08:30;08:45;195
01.01.2018;08:45;09:00;195
01.01.2018;09:00;09:15;195
01.01.2018;09:15;09:30;195
01.01.2018;09:30;09:45;197
01.01.2018;09:45;10:00;206
01.01.2018;10:00;10:15;212
01.01.2018;10:15;10:30;211
01.01.2018;10:30;10:45;231
01.01.2018;10:45;11:00;231
01.01.2018;11:00;11:15;210
01.01.2018;11:15;11:30;204
01.01.2018;11:30;11:45;250
01.01.2018;11:45;12:00;243
01.01.2018;12:00;12:15;239
01.01.2018;12:15;12:30;276
01.01.2018;12:30;12:45;264
01.01.2018;12:45;13:00;270
01.01.2018;13:00;13:15;249
01.01.2018;13:15;13:30;248
01.01.2018;13:30;13:45;227
01.01.2018;13:45;14:00;230
01.01.2018;14:00;14:15;228
01.01.2018;14:15;14:30;225
01.01.2018;14:30;14:45;215
01.01.2018;14:45;15:00;212
01.01.2018;15:00;15:15;209
01.01.2018;15:15;15:30;201
01.01.2018;15:30;15:45;199
01.01.2018;15:45;16:00;196
01.01.2018;16:00;16:15;195
01.01.2018;16:15;16:30;195
01.01.2018;16:30;16:45;195
01.01.2018;16:45;17:00;195
01.01.2018;17:00;17:15;195
01.01.2018;17:15;17:30;195
01.01.2018;17:30;17:45;195
01.01.2018;17:45;18:00;195
01.01.2018;18:00;18:15;195
01.01.2018;18:15;18:30;195
01.01.2018;18:30;18:45;195
01.01.2018;18:45;19:00;195
01.01.2018;19:00;19:15;195
01.01.2018;19:15;19:30;195
01.01.2018;19:30;19:45;195
01.01.2018;19:45;20:00;195
01.01.2018;20:00;20:15;195
01.01.2018;20:15;20:30;195
01.01.2018;20:30;20:45;195
01.01.2018;20:45;21:00;195
01.01.2018;21:00;21:15;195
01.01.2018;21:15;21:30;195
01.01.2018;21:30;21:45;195
01.01.2018;21:45;22:00;195
01.01.2018;22:00;22:15;195
01.01.2018;22:15;22:30;195
01.01.2018;22:30;22:45;195
01.01.2018;22:45;23:00;195
01.01.2018;23:00;23:15;195
01.01.2018;23:15;23:30;195
01.01.2018;23:30;23:45;195
02.01.2018;23:45;00:00;195
02.01.2018;00:00;00:15;195
02.01.2018;00:15;00:30;195
02.01.2018;00:30;00:45;195
02.01.2018;00:45;01:00;195
02.01.2018;01:00;01:15;195
02.01.2018;01:15;01:30;194,800026
02.01.2018;01:30;01:45;194,800026
02.01.2018;01:45;02:00;194,800026
02.01.2018;02:00;02:15;194,800026
02.01.2018;02:15;02:30;194,800026
02.01.2018;02:30;02:45;194,800026
02.01.2018;02:45;03:00;194,800026
02.01.2018;03:00;03:15;194,700026
02.01.2018;03:15;03:30;194,800026
02.01.2018;03:30;03:45;194,900026
02.01.2018;03:45;04:00;194,700026
02.01.2018;04:00;04:15;194,800026
02.01.2018;04:15;04:30;195,000026
02.01.2018;04:30;04:45;194,800026
02.01.2018;04:45;05:00;194,800026
02.01.2018;05:00;05:15;195
02.01.2018;05:15;05:30;195
02.01.2018;05:30;05:45;195
02.01.2018;05:45;06:00;195
02.01.2018;06:00;06:15;195
02.01.2018;06:15;06:30;195
02.01.2018;06:30;06:45;195
02.01.2018;06:45;07:00;195
02.01.2018;07:00;07:15;195
02.01.2018;07:15;07:30;195
02.01.2018;07:30;07:45;195
02.01.2018;07:45;08:00;195
02.01.2018;08:00;08:15;195
02.01.2018;08:15;08:30;195
02.01.2018;08:30;08:45;195
02.01.2018;08:45;09:00;198
02.01.2018;09:00;09:15;199
02.01.2018;09:15;09:30;199
02.01.2018;09:30;09:45;203
02.01.2018;09:45;10:00;204
02.01.2018;10:00;10:15;205
02.01.2018;10:15;10:30;205
02.01.2018;10:30;10:45;204
02.01.2018;10:45;11:00;202
02.01.2018;11:00;11:15;204
02.01.2018;11:15;11:30;203
02.01.2018;11:30;11:45;205
02.01.2018;11:45;12:00;206
02.01.2018;12:00;12:15;208
02.01.2018;12:15;12:30;204
02.01.2018;12:30;12:45;199
02.01.2018;12:45;13:00;201
02.01.2018;13:00;13:15;197
02.01.2018;13:15;13:30;203
02.01.2018;13:30;13:45;212
02.01.2018;13:45;14:00;212
02.01.2018;14:00;14:15;213
02.01.2018;14:15;14:30;209
02.01.2018;14:30;14:45;211
02.01.2018;14:45;15:00;200
02.01.2018;15:00;15:15;198
02.01.2018;15:15;15:30;196
02.01.2018;15:30;15:45;196
02.01.2018;15:45;16:00;195
02.01.2018;16:00;16:15;195
02.01.2018;16:15;16:30;195
02.01.2018;16:30;16:45;195
02.01.2018;16:45;17:00;195
02.01.2018;17:00;17:15;195
02.01.2018;17:15;17:30;195
02.01.2018;17:30;17:45;195
02.01.2018;17:45;18:00;195
02.01.2018;18:00;18:15;195
02.01.2018;18:15;18:30;195
02.01.2018;18:30;18:45;195
02.01.2018;18:45;19:00;195
02.01.2018;19:00;19:15;195
02.01.2018;19:15;19:30;195
02.01.2018;19:30;19:45;195
02.01.2018;19:45;20:00;195
02.01.2018;20:00;20:15;195
02.01.2018;20:15;20:30;195
02.01.2018;20:30;20:45;195
02.01.2018;20:45;21:00;195
02.01.2018;21:00;21:15;195
02.01.2018;21:15;21:30;195
02.01.2018;21:30;21:45;195
02.01.2018;21:45;22:00;195
02.01.2018;22:00;22:15;195
02.01.2018;22:15;22:30;195
02.01.2018;22:30;22:45;195
02.01.2018;22:45;23:00;195
02.01.2018;23:00;23:15;195
02.01.2018;23:15;23:30;195
02.01.2018;23:30;23:45;195
03.01.2018;23:45;00:00;195
03.01.2018;00:00;00:15;195
03.01.2018;00:15;00:30;195
03.01.2018;00:30;00:45;195
03.01.2018;00:45;01:00;195
03.01.2018;01:00;01:15;195
03.01.2018;01:15;01:30;195
03.01.2018;01:30;01:45;195
03.01.2018;01:45;02:00;195
03.01.2018;02:00;02:15;195
03.01.2018;02:15;02:30;195
03.01.2018;02:30;02:45;195
03.01.2018;02:45;03:00;195
03.01.2018;03:00;03:15;195
03.01.2018;03:15;03:30;194,800026
03.01.2018;03:30;03:45;194,800026
03.01.2018;03:45;04:00;194,900026
03.01.2018;04:00;04:15;194,900026
03.01.2018;04:15;04:30;194,800026
03.01.2018;04:30;04:45;195
03.01.2018;04:45;05:00;195
03.01.2018;05:00;05:15;195
03.01.2018;05:15;05:30;195
03.01.2018;05:30;05:45;195
03.01.2018;05:45;06:00;195
03.01.2018;06:00;06:15;195
03.01.2018;06:15;06:30;195
03.01.2018;06:30;06:45;195
03.01.2018;06:45;07:00;195
03.01.2018;07:00;07:15;195
03.01.2018;07:15;07:30;195
03.01.2018;07:30;07:45;195
03.01.2018;07:45;08:00;195
03.01.2018;08:00;08:15;195
03.01.2018;08:15;08:30;195
03.01.2018;08:30;08:45;195
03.01.2018;08:45;09:00;195
03.01.2018;09:00;09:15;195
03.01.2018;09:15;09:30;195
03.01.2018;09:30;09:45;195
03.01.2018;09:45;10:00;195
03.01.2018;10:00;10:15;196
03.01.2018;10:15;10:30;200
03.01.2018;10:30;10:45;198
03.01.2018;10:45;11:00;200
03.01.2018;11:00;11:15;203
03.01.2018;11:15;11:30;218
03.01.2018;11:30;11:45;207
03.01.2018;11:45;12:00;203
03.01.2018;12:00;12:15;200
03.01.2018;12:15;12:30;200
03.01.2018;12:30;12:45;201
03.01.2018;12:45;13:00;202
03.01.2018;13:00;13:15;199
03.01.2018;13:15;13:30;199
03.01.2018;13:30;13:45;198
03.01.2018;13:45;14:00;197
03.01.2018;14:00;14:15;197
03.01.2018;14:15;14:30;199
03.01.2018;14:30;14:45;212
03.01.2018;14:45;15:00;215
03.01.2018;15:00;15:15;199
03.01.2018;15:15;15:30;195
03.01.2018;15:30;15:45;195
03.01.2018;15:45;16:00;195
03.01.2018;16:00;16:15;195
03.01.2018;16:15;16:30;195
03.01.2018;16:30;16:45;195
03.01.2018;16:45;17:00;195
03.01.2018;17:00;17:15;195
03.01.2018;17:15;17:30;195
03.01.2018;17:30;17:45;195
03.01.2018;17:45;18:00;195
03.01.2018;18:00;18:15;195
03.01.2018;18:15;18:30;195
03.01.2018;18:30;18:45;195
03.01.2018;18:45;19:00;195
03.01.2018;19:00;19:15;195
03.01.2018;19:15;19:30;195
03.01.2018;19:30;19:45;195
03.01.2018;19:45;20:00;195
03.01.2018;20:00;20:15;195
03.01.2018;20:15;20:30;195
03.01.2018;20:30;20:45;195
03.01.2018;20:45;21:00;195
03.01.2018;21:00;21:15;195
03.01.2018;21:15;21:30;195
03.01.2018;21:30;21:45;195
03.01.2018;21:45;22:00;195
03.01.2018;22:00;22:15;195
03.01.2018;22:15;22:30;195
03.01.2018;22:30;22:45;195
03.01.2018;22:45;23:00;195
03.01.2018;23:00;23:15;195
03.01.2018;23:15;23:30;195
03.01.2018;23:30;23:45;195
04.01.2018;23:45;00:00;195
04.01.2018;00:00;00:15;195
04.01.2018;00:15;00:30;195
04.01.2018;00:30;00:45;195
04.01.2018;00:45;01:00;195
04.01.2018;01:00;01:15;195
04.01.2018;01:15;01:30;195
04.01.2018;01:30;01:45;195
04.01.2018;01:45;02:00;195
04.01.2018;02:00;02:15;195
04.01.2018;02:15;02:30;195
04.01.2018;02:30;02:45;195
04.01.2018;02:45;03:00;195
04.01.2018;03:00;03:15;195
04.01.2018;03:15;03:30;195
04.01.2018;03:30;03:45;195
04.01.2018;03:45;04:00;195
04.01.2018;04:00;04:15;195
04.01.2018;04:15;04:30;195
04.01.2018;04:30;04:45;195
04.01.2018;04:45;05:00;195
04.01.2018;05:00;05:15;195
04.01.2018;05:15;05:30;195
04.01.2018;05:30;05:45;195
04.01.2018;05:45;06:00;195
04.01.2018;06:00;06:15;195
04.01.2018;06:15;06:30;195
04.01.2018;06:30;06:45;195
04.01.2018;06:45;07:00;195
04.01.2018;07:00;07:15;195
04.01.2018;07:15;07:30;195
04.01.2018;07:30;07:45;195
04.01.2018;07:45;08:00;195
04.01.2018;08:00;08:15;195
04.01.2018;08:15;08:30;195
04.01.2018;08:30;08:45;195
04.01.2018;08:45;09:00;195
04.01.2018;09:00;09:15;195
04.01.2018;09:15;09:30;196
04.01.2018;09:30;09:45;197
04.01.2018;09:45;10:00;199
04.01.2018;10:00;10:15;203
04.01.2018;10:15;10:30;202
04.01.2018;10:30;10:45;199
04.01.2018;10:45;11:00;203
04.01.2018;11:00;11:15;207
04.01.2018;11:15;11:30;204
04.01.2018;11:30;11:45;206
04.01.2018;11:45;12:00;205
04.01.2018;12:00;12:15;200
04.01.2018;12:15;12:30;202
04.01.2018;12:30;12:45;202
04.01.2018;12:45;13:00;205
04.01.2018;13:00;13:15;202
04.01.2018;13:15;13:30;198
04.01.2018;13:30;13:45;200
04.01.2018;13:45;14:00;201
04.01.2018;14:00;14:15;198
04.01.2018;14:15;14:30;197
04.01.2018;14:30;14:45;198
04.01.2018;14:45;15:00;197
04.01.2018;15:00;15:15;196
04.01.2018;15:15;15:30;195
04.01.2018;15:30;15:45;196
04.01.2018;15:45;16:00;195
04.01.2018;16:00;16:15;195
04.01.2018;16:15;16:30;195
04.01.2018;16:30;16:45;195
04.01.2018;16:45;17:00;195
04.01.2018;17:00;17:15;195
04.01.2018;17:15;17:30;195
04.01.2018;17:30;17:45;195
04.01.2018;17:45;18:00;195
04.01.2018;18:00;18:15;195
04.01.2018;18:15;18:30;195
04.01.2018;18:30;18:45;195
04.01.2018;18:45;19:00;195
04.01.2018;19:00;19:15;195
04.01.2018;19:15;19:30;195
04.01.2018;19:30;19:45;195
04.01.2018;19:45;20:00;195
04.01.2018;20:00;20:15;195
04.01.2018;20:15;20:30;195
04.01.2018;20:30;20:45;195
04.01.2018;20:45;21:00;195
04.01.2018;21:00;21:15;195
04.01.2018;21:15;21:30;195
04.01.2018;21:30;21:45;195
04.01.2018;21:45;22:00;195
04.01.2018;22:00;22:15;195
04.01.2018;22:15;22:30;195
04.01.2018;22:30;22:45;195
04.01.2018;22:45;23:00;195
04.01.2018;23:00;23:15;195
04.01.2018;23:15;23:30;195
04.01.2018;23:30;23:45;195
05.01.2018;23:45;00:00;195
05.01.2018;00:00;00:15;195
05.01.2018;00:15;00:30;195
05.01.2018;00:30;00:45;195
05.01.2018;00:45;01:00;195
05.01.2018;01:00;01:15;195
05.01.2018;01:15;01:30;195
05.01.2018;01:30;01:45;195
05.01.2018;01:45;02:00;195
05.01.2018;02:00;02:15;195
05.01.2018;02:15;02:30;195
05.01.2018;02:30;02:45;195
05.01.2018;02:45;03:00;195
05.01.2018;03:00;03:15;195
05.01.2018;03:15;03:30;195
05.01.2018;03:30;03:45;195
05.01.2018;03:45;04:00;195
05.01.2018;04:00;04:15;195
05.01.2018;04:15;04:30;195
05.01.2018;04:30;04:45;195
05.01.2018;04:45;05:00;195
05.01.2018;05:00;05:15;195
05.01.2018;05:15;05:30;195
05.01.2018;05:30;05:45;195
05.01.2018;05:45;06:00;195
05.01.2018;06:00;06:15;195
05.01.2018;06:15;06:30;195
05.01.2018;06:30;06:45;195
05.01.2018;06:45;07:00;195
05.01.2018;07:00;07:15;195
05.01.2018;07:15;07:30;195
05.01.2018;07:30;07:45;195
05.01.2018;07:45;08:00;195
05.01.2018;08:00;08:15;195
05.01.2018;08:15;08:30;195
05.01.2018;08:30;08:45;195
05.01.2018;08:45;09:00;196
05.01.2018;09:00;09:15;199
05.01.2018;09:15;09:30;202
05.01.2018;09:30;09:45;210
05.01.2018;09:45;10:00;226
05.01.2018;10:00;10:15;228
05.01.2018;10:15;10:30;205
05.01.2018;10:30;10:45;206
05.01.2018;10:45;11:00;214
05.01.2018;11:00;11:15;205
05.01.2018;11:15;11:30;210
05.01.2018;11:30;11:45;216
05.01.2018;11:45;12:00;203
05.01.2018;12:00;12:15;204
05.01.2018;12:15;12:30;201
05.01.2018;12:30;12:45;199
05.01.2018;12:45;13:00;198
05.01.2018;13:00;13:15;198
05.01.2018;13:15;13:30;197
05.01.2018;13:30;13:45;197
05.01.2018;13:45;14:00;201
05.01.2018;14:00;14:15;202
05.01.2018;14:15;14:30;202
05.01.2018;14:30;14:45;199
05.01.2018;14:45;15:00;200
05.01.2018;15:00;15:15;196
05.01.2018;15:15;15:30;195
05.01.2018;15:30;15:45;195
05.01.2018;15:45;16:00;195
05.01.2018;16:00;16:15;195
05.01.2018;16:15;16:30;195
05.01.2018;16:30;16:45;195
05.01.2018;16:45;17:00;195
05.01.2018;17:00;17:15;195
05.01.2018;17:15;17:30;195
05.01.2018;17:30;17:45;195
05.01.2018;17:45;18:00;195
05.01.2018;18:00;18:15;195
05.01.2018;18:15;18:30;195
05.01.2018;18:30;18:45;195
05.01.2018;18:45;19:00;195
05.01.2018;19:00;19:15;195
05.01.2018;19:15;19:30;195
05.01.2018;19:30;19:45;195
05.01.2018;19:45;20:00;195
05.01.2018;20:00;20:15;195
05.01.2018;20:15;20:30;195
05.01.2018;20:30;20:45;195
05.01.2018;20:45;21:00;195
05.01.2018;21:00;21:15;195
05.01.2018;21:15;21:30;195
05.01.2018;21:30;21:45;195
05.01.2018;21:45;22:00;195
05.01.2018;22:00;22:15;195
05.01.2018;22:15;22:30;195
05.01.2018;22:30;22:45;195
05.01.2018;22:45;23:00;195
05.01.2018;23:00;23:15;195
05.01.2018;23:15;23:30;195
05.01.2018;23:30;23:45;195
06.01.2018;23:45;00:00;195
06.01.2018;00:00;00:15;195
06.01.2018;00:15;00:30;195
06.01.2018;00:30;00:45;195
06.01.2018;00:45;01:00;195
06.01.2018;01:00;01:15;195
06.01.2018;01:15;01:30;195
06.01.2018;01:30;01:45;195
06.01.2018;01:45;02:00;195
06.01.2018;02:00;02:15;195
06.01.2018;02:15;02:30;195
06.01.2018;02:30;02:45;195
06.01.2018;02:45;03:00;195
06.01.2018;03:00;03:15;195
06.01.2018;03:15;03:30;195
06.01.2018;03:30;03:45;195
06.01.2018;03:45;04:00;195
06.01.2018;04:00;04:15;195
06.01.2018;04:15;04:30;195
06.01.2018;04:30;04:45;195
06.01.2018;04:45;05:00;195
06.01.2018;05:00;05:15;195
06.01.2018;05:15;05:30;195
06.01.2018;05:30;05:45;195
06.01.2018;05:45;06:00;195
06.01.2018;06:00;06:15;195
06.01.2018;06:15;06:30;195
06.01.2018;06:30;06:45;195
06.01.2018;06:45;07:00;195
06.01.2018;07:00;07:15;195
06.01.2018;07:15;07:30;195
06.01.2018;07:30;07:45;195
06.01.2018;07:45;08:00;195
06.01.2018;08:00;08:15;195
06.01.2018;08:15;08:30;195
06.01.2018;08:30;08:45;195
06.01.2018;08:45;09:00;196
06.01.2018;09:00;09:15;196
06.01.2018;09:15;09:30;197
06.01.2018;09:30;09:45;197
06.01.2018;09:45;10:00;196
06.01.2018;10:00;10:15;199
06.01.2018;10:15;10:30;211
06.01.2018;10:30;10:45;211
06.01.2018;10:45;11:00;217
06.01.2018;11:00;11:15;222
06.01.2018;11:15;11:30;220
06.01.2018;11:30;11:45;244
06.01.2018;11:45;12:00;251
06.01.2018;12:00;12:15;234
06.01.2018;12:15;12:30;230
06.01.2018;12:30;12:45;214
06.01.2018;12:45;13:00;212
06.01.2018;13:00;13:15;211
06.01.2018;13:15;13:30;206
06.01.2018;13:30;13:45;203
06.01.2018;13:45;14:00;210
06.01.2018;14:00;14:15;206
06.01.2018;14:15;14:30;205
06.01.2018;14:30;14:45;201
06.01.2018;14:45;15:00;199
06.01.2018;15:00;15:15;197
06.01.2018;15:15;15:30;196
06.01.2018;15:30;15:45;197
06.01.2018;15:45;16:00;195
06.01.2018;16:00;16:15;195
06.01.2018;16:15;16:30;195
06.01.2018;16:30;16:45;195
06.01.2018;16:45;17:00;195
06.01.2018;17:00;17:15;195
06.01.2018;17:15;17:30;195
06.01.2018;17:30;17:45;195
06.01.2018;17:45;18:00;195
06.01.2018;18:00;18:15;195
06.01.2018;18:15;18:30;195
06.01.2018;18:30;18:45;195
06.01.2018;18:45;19:00;195
06.01.2018;19:00;19:15;195
06.01.2018;19:15;19:30;195
06.01.2018;19:30;19:45;195
06.01.2018;19:45;20:00;195
06.01.2018;20:00;20:15;195
06.01.2018;20:15;20:30;195
06.01.2018;20:30;20:45;195
06.01.2018;20:45;21:00;195
06.01.2018;21:00;21:15;195
06.01.2018;21:15;21:30;195
06.01.2018;21:30;21:45;195
06.01.2018;21:45;22:00;195
06.01.2018;22:00;22:15;195
06.01.2018;22:15;22:30;195
06.01.2018;22:30;22:45;195
06.01.2018;22:45;23:00;195
06.01.2018;23:00;23:15;195
06.01.2018;23:15;23:30;195
06.01.2018;23:30;23:45;195
07.01.2018;23:45;00:00;195
07.01.2018;00:00;00:15;195
07.01.2018;00:15;00:30;195
07.01.2018;00:30;00:45;195
07.01.2018;00:45;01:00;195
07.01.2018;01:00;01:15;195
07.01.2018;01:15;01:30;195
07.01.2018;01:30;01:45;195
07.01.2018;01:45;02:00;195
07.01.2018;02:00;02:15;195
07.01.2018;02:15;02:30;195
07.01.2018;02:30;02:45;195
07.01.2018;02:45;03:00;195
07.01.2018;03:00;03:15;195
07.01.2018;03:15;03:30;195
07.01.2018;03:30;03:45;195
07.01.2018;03:45;04:00;195
07.01.2018;04:00;04:15;195
07.01.2018;04:15;04:30;195
07.01.2018;04:30;04:45;195
07.01.2018;04:45;05:00;195
07.01.2018;05:00;05:15;195
07.01.2018;05:15;05:30;195
07.01.2018;05:30;05:45;195
07.01.2018;05:45;06:00;195
07.01.2018;06:00;06:15;195
07.01.2018;06:15;06:30;195
07.01.2018;06:30;06:45;195
07.01.2018;06:45;07:00;195
07.01.2018;07:00;07:15;195
07.01.2018;07:15;07:30;195
07.01.2018;07:30;07:45;195
07.01.2018;07:45;08:00;195
07.01.2018;08:00;08:15;195
07.01.2018;08:15;08:30;195
07.01.2018;08:30;08:45;195
07.01.2018;08:45;09:00;196
07.01.2018;09:00;09:15;198
07.01.2018;09:15;09:30;202
07.01.2018;09:30;09:45;204
07.01.2018;09:45;10:00;209
07.01.2018;10:00;10:15;214
07.01.2018;10:15;10:30;220
07.01.2018;10:30;10:45;224
07.01.2018;10:45;11:00;233
07.01.2018;11:00;11:15;221
07.01.2018;11:15;11:30;228
07.01.2018;11:30;11:45;232
07.01.2018;11:45;12:00;236
07.01.2018;12:00;12:15;241
07.01.2018;12:15;12:30;246
07.01.2018;12:30;12:45;243
07.01.2018;12:45;13:00;231
07.01.2018;13:00;13:15;234
07.01.2018;13:15;13:30;231
07.01.2018;13:30;13:45;230
07.01.2018;13:45;14:00;248
07.01.2018;14:00;14:15;238
07.01.2018;14:15;14:30;229
07.01.2018;14:30;14:45;222
07.01.2018;14:45;15:00;216
07.01.2018;15:00;15:15;209
07.01.2018;15:15;15:30;202
07.01.2018;15:30;15:45;198
07.01.2018;15:45;16:00;197
07.01.2018;16:00;16:15;195
07.01.2018;16:15;16:30;195
07.01.2018;16:30;16:45;195
07.01.2018;16:45;17:00;195
07.01.2018;17:00;17:15;195
07.01.2018;17:15;17:30;195
07.01.2018;17:30;17:45;195
07.01.2018;17:45;18:00;195
07.01.2018;18:00;18:15;195
07.01.2018;18:15;18:30;195
07.01.2018;18:30;18:45;195
07.01.2018;18:45;19:00;195
07.01.2018;19:00;19:15;195
07.01.2018;19:15;19:30;195
07.01.2018;19:30;19:45;195
07.01.2018;19:45;20:00;195
07.01.2018;20:00;20:15;195
07.01.2018;20:15;20:30;195
07.01.2018;20:30;20:45;195
07.01.2018;20:45;21:00;195
07.01.2018;21:00;21:15;195
07.01.2018;21:15;21:30;195
07.01.2018;21:30;21:45;195
07.01.2018;21:45;22:00;195
07.01.2018;22:00;22:15;195
07.01.2018;22:15;22:30;195
07.01.2018;22:30;22:45;195
07.01.2018;22:45;23:00;195
07.01.2018;23:00;23:15;195
07.01.2018;23:15;23:30;195
07.01.2018;23:30;23:45;195
08.01.2018;23:45;00:00;195
08.01.2018;00:00;00:15;195
08.01.2018;00:15;00:30;195
08.01.2018;00:30;00:45;195
08.01.2018;00:45;01:00;195
08.01.2018;01:00;01:15;195
08.01.2018;01:15;01:30;195
08.01.2018;01:30;01:45;195
08.01.2018;01:45;02:00;195
08.01.2018;02:00;02:15;195
08.01.2018;02:15;02:30;195
08.01.2018;02:30;02:45;195
08.01.2018;02:45;03:00;195
08.01.2018;03:00;03:15;195
08.01.2018;03:15;03:30;195
08.01.2018;03:30;03:45;195
08.01.2018;03:45;04:00;195
08.01.2018;04:00;04:15;195
08.01.2018;04:15;04:30;195
08.01.2018;04:30;04:45;195
08.01.2018;04:45;05:00;195
08.01.2018;05:00;05:15;195
08.01.2018;05:15;05:30;195
08.01.2018;05:30;05:45;195
08.01.2018;05:45;06:00;195
08.01.2018;06:00;06:15;195
08.01.2018;06:15;06:30;195
08.01.2018;06:30;06:45;195
08.01.2018;06:45;07:00;195
08.01.2018;07:00;07:15;195
08.01.2018;07:15;07:30;195
08.01.2018;07:30;07:45;195
08.01.2018;07:45;08:00;195
08.01.2018;08:00;08:15;194
08.01.2018;08:15;08:30;195
08.01.2018;08:30;08:45;195
08.01.2018;08:45;09:00;197
08.01.2018;09:00;09:15;199
08.01.2018;09:15;09:30;201
08.01.2018;09:30;09:45;206
08.01.2018;09:45;10:00;214
08.01.2018;10:00;10:15;223
08.01.2018;10:15;10:30;234
08.01.2018;10:30;10:45;246
08.01.2018;10:45;11:00;258
08.01.2018;11:00;11:15;270
08.01.2018;11:15;11:30;280
08.01.2018;11:30;11:45;289
08.01.2018;11:45;12:00;292
08.01.2018;12:00;12:15;292
08.01.2018;12:15;12:30;290
08.01.2018;12:30;12:45;287
08.01.2018;12:45;13:00;284
08.01.2018;13:00;13:15;278
08.01.2018;13:15;13:30;270
08.01.2018;13:30;13:45;261
08.01.2018;13:45;14:00;251
08.01.2018;14:00;14:15;237
08.01.2018;14:15;14:30;230
08.01.2018;14:30;14:45;223
08.01.2018;14:45;15:00;217
08.01.2018;15:00;15:15;211
08.01.2018;15:15;15:30;203
08.01.2018;15:30;15:45;198
08.01.2018;15:45;16:00;197
08.01.2018;16:00;16:15;195
08.01.2018;16:15;16:30;195
08.01.2018;16:30;16:45;195
08.01.2018;16:45;17:00;195
08.01.2018;17:00;17:15;195
08.01.2018;17:15;17:30;195
08.01.2018;17:30;17:45;195
08.01.2018;17:45;18:00;195
08.01.2018;18:00;18:15;195
08.01.2018;18:15;18:30;195
08.01.2018;18:30;18:45;195
08.01.2018;18:45;19:00;195
08.01.2018;19:00;19:15;195
08.01.2018;19:15;19:30;195
08.01.2018;19:30;19:45;195
08.01.2018;19:45;20:00;195
08.01.2018;20:00;20:15;195
08.01.2018;20:15;20:30;195
08.01.2018;20:30;20:45;195
08.01.2018;20:45;21:00;195
08.01.2018;21:00;21:15;195
08.01.2018;21:15;21:30;195
08.01.2018;21:30;21:45;195
08.01.2018;21:45;22:00;195
08.01.2018;22:00;22:15;195
08.01.2018;22:15;22:30;195
08.01.2018;22:30;22:45;195
08.01.2018;22:45;23:00;195
08.01.2018;23:00;23:15;195
08.01.2018;23:15;23:30;195
08.01.2018;23:30;23:45;195
09.01.2018;23:45;00:00;195
09.01.2018;00:00;00:15;195
09.01.2018;00:15;00:30;195
09.01.2018;00:30;00:45;195
09.01.2018;00:45;01:00;195
09.01.2018;01:00;01:15;195
09.01.2018;01:15;01:30;195
09.01.2018;01:30;01:45;195
09.01.2018;01:45;02:00;195
09.01.2018;02:00;02:15;195
09.01.2018;02:15;02:30;195
09.01.2018;02:30;02:45;195
09.01.2018;02:45;03:00;195
09.01.2018;03:00;03:15;195
09.01.2018;03:15;03:30;195
09.01.2018;03:30;03:45;195
09.01.2018;03:45;04:00;195
09.01.2018;04:00;04:15;195
09.01.2018;04:15;04:30;195
09.01.2018;04:30;04:45;195
09.01.2018;04:45;05:00;195
09.01.2018;05:00;05:15;195
09.01.2018;05:15;05:30;195
09.01.2018;05:30;05:45;195
09.01.2018;05:45;06:00;195
09.01.2018;06:00;06:15;195
09.01.2018;06:15;06:30;195
09.01.2018;06:30;06:45;195
09.01.2018;06:45;07:00;195
09.01.2018;07:00;07:15;195
09.01.2018;07:15;07:30;195
09.01.2018;07:30;07:45;195
09.01.2018;07:45;08:00;195
09.01.2018;08:00;08:15;195
09.01.2018;08:15;08:30;195
09.01.2018;08:30;08:45;197
09.01.2018;08:45;09:00;199
09.01.2018;09:00;09:15;202
09.01.2018;09:15;09:30;204
09.01.2018;09:30;09:45;206
09.01.2018;09:45;10:00;210
09.01.2018;10:00;10:15;213
09.01.2018;10:15;10:30;214
09.01.2018;10:30;10:45;223
09.01.2018;10:45;11:00;219
09.01.2018;11:00;11:15;216
09.01.2018;11:15;11:30;229
09.01.2018;11:30;11:45;230
09.01.2018;11:45;12:00;232
09.01.2018;12:00;12:15;240
09.01.2018;12:15;12:30;250
09.01.2018;12:30;12:45;258
09.01.2018;12:45;13:00;259
09.01.2018;13:00;13:15;244
09.01.2018;13:15;13:30;236
09.01.2018;13:30;13:45;231
09.01.2018;13:45;14:00;216
09.01.2018;14:00;14:15;209
09.01.2018;14:15;14:30;207
09.01.2018;14:30;14:45;208
09.01.2018;14:45;15:00;205
09.01.2018;15:00;15:15;200
09.01.2018;15:15;15:30;197
09.01.2018;15:30;15:45;196
09.01.2018;15:45;16:00;195
09.01.2018;16:00;16:15;195
09.01.2018;16:15;16:30;195
09.01.2018;16:30;16:45;195
09.01.2018;16:45;17:00;195
09.01.2018;17:00;17:15;195
09.01.2018;17:15;17:30;195
09.01.2018;17:30;17:45;195
09.01.2018;17:45;18:00;195
09.01.2018;18:00;18:15;195
09.01.2018;18:15;18:30;195